Regional Weather Roundup
Issued by NWS

Home | Current Version | Previous Version | Text Only | Print | Product List | Glossary On
Versions: 1 2 3 4 5 6 7 8 9 10 11 12 13 14 15 16 17 18 19 20 21 22 23 24 25 26 27 28 29 30 31 32 33 34 35 36 37 38 39 40 41 42 43 44 45 46 47 48 49 50
000
ASUS43 KTOP 281008
RWRKS

WEATHER ROUNDUP FOR KANSAS
NATIONAL WEATHER SERVICE GOODLAND KS
500 AM CDT THU JUL 28 2016

NOTE:  "FAIR" INDICATES FEW OR NO CLOUDS BELOW 12,000 FEET WITH NO
SIGNIFICANT WEATHER AND/OR OBSTRUCTIONS TO VISIBILITY.

KSZ001>006-013>018-027>032-041>047-281100-
NORTHWEST KANSAS

CITY           SKY/WX    TMP DP  RH WIND       PRES   REMARKS
GOODLAND       TSTM      61  58  90 N16G35    30.25R
HAYS           CLOUDY    70  61  73 SW8       30.06R
HILL CITY      MOCLDY    68  66  93 N5        30.07R
RUSSELL        CLOUDY    74  68  81 NW5       30.03R
$$

KSZ061>065-074>080-084>089-281100-
SOUTHWEST KANSAS

CITY           SKY/WX    TMP DP  RH WIND       PRES   REMARKS
DODGE CITY     CLOUDY    66  62  87 NE7       30.07F
ELKHART          N/A     63  58  84 E6          N/A
GARDEN CITY    CLOUDY    67  59  75 W8        30.08R
GREAT BEND     CLOUDY    68  57  68 SW22G35   29.98F THUNDER
LIBERAL        CLEAR     72  61  68 NE9       30.09F
PRATT          CLOUDY    68  63  82 NW24G32   30.07R
$$

KSZ066>073-081>083-090>101-281100-
SOUTHEAST KANSAS

CITY           SKY/WX    TMP DP  RH WIND       PRES   REMARKS
CHANUTE        CLEAR     75  73  93 W3        29.94S
COFFEYVILLE    CLEAR     74  73  97 CALM      29.94S
HUTCHINSON     PTCLDY    72  70  93 CALM      30.00R
MEDICINE LODGE   N/A     70  67  90 CALM      30.01R
NEWTON         PTCLDY    75  72  90 W5        30.00R
PARSONS        CLEAR     73  72  96 CALM      29.95S
WICHITA INTL   MOCLDY    74  70  87 SW3       29.97S
WICHITA JABRA  PTCLDY    76  72  87 W7        29.98R
WICHITA MCCONL PTCLDY    76  71  83 W5        29.98S
WINFIELD       CLEAR     73  70  90 CALM      29.98S
$$

KSZ007>012-019>026-033>040-048>060-102>105-281100-
NORTHEAST KANSAS

CITY           SKY/WX    TMP DP  RH WIND       PRES   REMARKS
CONCORDIA      PTCLDY    70  66  87 N6        30.00S
EMPORIA        PTCLDY    74  72  93 CALM      29.96S
LAWRENCE       PTCLDY    70  69  97 CALM      29.93F
MANHATTAN      PTCLDY    71  68  90 CALM      29.96S
MARYSVILLE     CLOUDY    68  66  94 CALM      29.98S
OLATHE IND     CLEAR     73  70  90 CALM      29.94F
OLATHE EXE     PTCLDY    74  70  87 CALM      29.93F
SALINA         MOCLDY    75  69  81 SW3       29.98S
TOPEKA BILLARD PTCLDY    70  68  93 NW5       29.95S
TOPEKA FORBES  PTCLDY    73  69  87 NW7       29.95S
$$




USA.gov is the U.S. government's official web portal to all federal, state and local government web resources and services.